Total_Precipitation_Accumulation
0.05 0.07 0.09 0.11 0.11 0.17 0.21 0.19 0.28 0.34 0.35 0.40 0.55 0.77 1.00 1.08 1.24 1.36 1.58 1.63 1.92 2.12 2.31 2.66 3.11 3.57 4.18 4.39 4.48 4.47 4.62 4.90 5.08 5.24 5.28 5.67 5.70 5.52 5.71 5.94 5.85 5.99 6.02 5.74
0.06 0.06 0.05 0.05 0.07 0.18 0.23 0.19 0.30 0.42 0.47 0.53 0.65 0.84 1.08 1.23 1.22 1.51 1.81 1.88 2.39 2.55 2.49 2.68 3.22 3.63 4.09 4.40 4.58 4.83 4.93 4.98 5.12 5.60 6.06 6.46 6.83 6.76 6.66 6.81 6.85 6.64 6.50 6.38
0.06 0.07 0.07 0.08 0.10 0.16 0.22 0.27 0.37 0.51 0.51 0.62 0.79 1.25 1.38 1.36 1.40 1.64 1.98 2.16 2.54 2.68 2.80 2.75 2.93 3.32 3.74 4.13 4.40 4.64 4.95 5.34 5.90 6.57 7.05 7.31 7.68 7.83 7.56 7.26 7.07 6.84 6.62 6.43
0.07 0.06 0.09 0.09 0.12 0.12 0.18 0.21 0.30 0.37 0.49 0.73 0.82 1.53 1.71 1.64 1.74 1.85 2.04 2.16 2.44 2.38 2.58 2.75 2.82 3.09 3.42 3.72 4.09 4.52 4.94 5.56 6.48 7.19 7.66 8.07 8.21 8.23 8.04 7.72 7.27 6.86 6.46 6.05
0.10 0.07 0.09 0.09 0.11 0.09 0.11 0.13 0.21 0.26 0.38 0.62 0.73 1.34 1.77 1.76 1.99 2.07 2.25 2.33 2.38 2.40 2.35 2.46 2.58 2.76 3.12 3.48 3.83 4.29 4.76 5.51 6.26 6.91 7.54 8.08 8.25 8.20 7.91 7.45 6.89 6.38 5.91 5.45
0.09 0.08 0.07 0.07 0.08 0.08 0.10 0.16 0.25 0.33 0.55 0.89 0.74 1.15 1.89 2.09 2.23 2.34 2.32 2.38 2.59 2.52 2.37 2.39 2.42 2.54 2.78 3.12 3.48 3.94 4.40 4.97 5.61 6.09 6.71 7.17 7.37 7.27 6.84 6.28 5.68 5.29 5.04 4.76
0.14 0.11 0.08 0.08 0.10 0.10 0.13 0.29 0.67 0.86 0.99 1.04 0.75 1.24 2.12 2.30 2.21 2.32 2.47 2.62 2.69 2.64 2.51 2.43 2.42 2.46 2.62 2.89 3.24 3.56 3.83 4.28 4.57 4.91 5.41 5.80 5.88 5.76 5.43 5.13 4.90 4.50 4.06 3.70
0.29 0.25 0.14 0.11 0.13 0.15 0.16 0.28 0.75 1.13 1.06 1.04 1.11 1.85 2.49 2.39 2.18 2.14 2.27 2.36 2.39 2.34 2.32 2.34 2.36 2.48 2.61 2.66 2.86 3.07 3.12 3.32 3.54 3.75 4.00 4.14 4.18 4.22 4.20 4.08 3.75 3.39 2.99 2.66
0.41 0.34 0.16 0.11 0.11 0.12 0.17 0.25 0.34 0.62 0.73 1.12 1.67 2.29 2.76 2.50 2.41 2.28 2.07 1.92 2.11 2.22 2.22 2.28 2.34 2.48 2.56 2.51 2.45 2.54 2.61 2.65 2.75 2.84 3.00 3.10 3.15 3.30 3.29 3.21 3.02 2.76 2.54 2.27
0.36 0.34 0.19 0.11 0.10 0.13 0.16 0.23 0.37 0.66 1.20 1.54 1.88 2.52 3.10 3.03 2.93 2.88 2.53 2.14 2.19 2.26 2.34 2.35 2.30 2.29 2.38 2.26 2.20 2.28 2.38 2.35 2.35 2.30 2.31 2.26 2.43 2.55 2.60 2.53 2.34 2.31 2.28 2.16
0.29 0.31 0.25 0.17 0.20 0.23 0.22 0.28 0.40 0.70 0.96 1.53 2.23 2.92 2.84 3.11 3.21 3.06 2.69 2.28 2.26 2.28 2.36 2.39 2.42 2.27 2.20 2.18 2.16 2.06 2.05 2.03 2.00 1.98 2.04 1.97 1.96 1.98 1.96 1.85 1.78 1.81 1.85 1.88
0.30 0.35 0.38 0.26 0.23 0.23 0.28 0.32 0.43 0.91 1.05 1.18 1.97 2.95 2.79 3.10 3.25 3.06 2.90 2.60 2.41 2.47 2.45 2.37 2.42 2.39 2.22 2.04 1.99 1.95 1.90 1.83 1.81 1.84 1.87 1.75 1.67 1.68 1.69 1.65 1.58 1.57 1.63 1.62
0.34 0.55 0.79 0.86 0.69 0.41 0.34 0.33 0.41 0.56 0.85 1.22 1.92 2.91 2.89 2.95 2.86 2.72 2.71 2.66 2.67 2.89 2.74 2.53 2.39 2.13 2.02 1.86 1.71 1.69 1.76 1.77 1.74 1.78 1.81 1.77 1.63 1.56 1.53 1.51 1.44 1.36 1.42 1.45
0.35 0.60 1.02 1.51 1.23 0.67 0.48 0.43 0.49 0.63 1.04 1.38 1.72 2.36 2.67 2.84 2.84 2.83 2.86 2.87 2.80 2.64 2.36 2.14 1.98 1.82 1.77 1.74 1.65 1.59 1.60 1.63 1.62 1.65 1.70 1.69 1.64 1.56 1.47 1.46 1.46 1.41 1.39 1.34
0.43 0.72 0.77 0.75 0.63 0.53 0.53 0.53 0.58 0.67 0.82 1.30 1.63 2.12 2.58 2.80 2.93 2.77 2.82 2.74 2.47 2.31 2.18 2.01 1.93 1.86 1.75 1.69 1.65 1.57 1.54 1.50 1.47 1.51 1.51 1.49 1.46 1.46 1.39 1.36 1.39 1.37 1.38 1.31
0.51 0.79 0.73 0.68 0.55 0.57 0.68 0.69 0.75 0.77 0.87 1.16 1.59 2.21 2.46 2.70 2.85 2.78 2.78 2.59 2.47 2.38 2.28 2.16 2.09 1.99 1.86 1.64 1.61 1.62 1.61 1.59 1.54 1.49 1.40 1.34 1.35 1.32 1.25 1.21 1.18 1.18 1.20 1.27
0.58 0.85 1.00 0.95 0.64 0.88 1.39 1.09 0.99 1.13 1.11 1.38 1.88 2.13 2.05 2.16 2.33 2.48 2.57 2.54 2.44 2.37 2.36 2.32 2.25 2.16 2.02 1.80 1.71 1.66 1.62 1.56 1.53 1.52 1.39 1.29 1.31 1.31 1.23 1.14 1.17 1.15 1.14 1.22
0.60 0.92 1.04 1.08 1.26 2.05 1.95 1.25 1.09 1.25 1.38 1.33 1.51 1.61 1.67 1.76 1.95 2.14 2.27 2.46 2.52 2.45 2.36 2.29 2.20 2.08 1.99 1.85 1.69 1.57 1.49 1.41 1.49 1.53 1.45 1.32 1.29 1.27 1.23 1.21 1.26 1.28 1.23 1.24
0.47 0.87 1.22 1.41 1.86 2.19 1.98 1.37 1.23 1.61 1.98 1.48 1.40 1.44 1.44 1.49 1.73 2.16 2.26 2.42 2.58 2.43 2.36 2.28 2.12 1.99 1.93 1.74 1.55 1.44 1.47 1.41 1.41 1.43 1.36 1.30 1.23 1.21 1.17 1.19 1.23 1.26 1.27 1.27
0.49 0.79 1.34 1.70 2.27 2.61 2.35 1.26 0.93 1.51 2.56 1.67 1.42 1.57 1.64 1.74 2.19 2.25 2.03 2.07 2.27 2.34 2.41 2.33 2.07 1.90 1.80 1.55 1.34 1.31 1.32 1.29 1.30 1.24 1.18 1.15 1.19 1.19 1.16 1.17 1.19 1.23 1.27 1.27
1.02 1.18 1.46 1.85 2.38 2.41 1.54 0.96 1.10 2.38 2.74 1.88 1.66 1.75 1.87 2.05 2.18 1.90 1.69 1.75 1.91 2.11 2.19 2.07 1.92 1.80 1.59 1.38 1.29 1.31 1.24 1.12 1.05 1.06 1.09 1.13 1.17 1.22 1.20 1.24 1.25 1.26 1.23 1.28
1.33 1.69 1.86 2.08 2.54 2.60 1.29 1.08 1.76 2.16 1.65 1.51 1.48 1.50 1.63 1.57 1.44 1.42 1.53 1.64 1.78 1.92 1.95 1.84 1.77 1.67 1.53 1.39 1.38 1.41 1.27 1.08 1.00 1.04 1.08 1.12 1.16 1.04 1.03 1.26 1.26 1.20 1.26 1.29
1.20 1.51 1.85 2.17 2.48 2.10 1.41 1.46 1.57 1.50 1.55 1.44 1.41 1.35 1.43 1.41 1.36 1.40 1.45 1.54 1.64 1.73 1.73 1.60 1.51 1.55 1.55 1.47 1.46 1.49 1.35 1.15 1.10 1.17 1.16 1.11 1.11 1.14 1.18 1.22 1.17 1.15 1.17 1.12
1.14 0.98 1.32 1.75 1.73 1.50 1.34 1.30 1.30 1.25 1.30 1.22 1.20 1.21 1.35 1.46 1.45 1.53 1.43 1.39 1.46 1.51 1.50 1.49 1.42 1.46 1.50 1.42 1.32 1.40 1.34 1.24 1.24 1.24 1.15 1.10 1.15 1.26 1.27 1.20 1.05 1.02 0.99 0.97
1.18 1.29 1.65 1.95 1.69 1.53 1.37 1.15 1.03 0.99 0.94 0.96 1.00 1.07 1.21 1.36 1.38 1.39 1.39 1.32 1.22 1.18 1.22 1.32 1.41 1.37 1.30 1.26 1.14 1.13 1.19 1.24 1.34 1.32 1.21 1.12 1.05 1.11 1.17 1.02 0.87 0.86 0.83 0.86
1.12 1.54 2.15 2.04 1.72 1.86 1.60 1.18 0.95 0.98 1.05 1.05 0.99 0.92 0.95 1.06 1.14 1.20 1.27 1.18 1.04 0.98 1.03 1.13 1.18 1.15 1.14 1.11 1.06 1.05 1.04 1.10 1.29 1.28 1.17 1.04 0.90 0.87 0.86 0.83 0.83 0.83 0.79 0.81